Date,TemperatureHighF,TemperatureAvgF,TemperatureLowF,DewpointHighF,DewpointAvgF,DewpointLowF,HumidityHigh,HumidityAvg,HumidityLow,PressureMaxIn,PressureMinIn,WindSpeedMaxMPH,WindSpeedAvgMPH,GustSpeedMaxMPH,PrecipitationSumIn
2013-1-1,78.1,73.6,70.3,62.1,58.8,55.6,69,60,55,30.24,30.06,17,6,17,0.00
2013-1-2,79.0,72.6,66.6,67.4,63.1,58.1,79,72,67,30.15,30.03,10,3,10,0.00
2013-1-3,81.7,74.5,69.3,70.1,66.8,64.6,86,77,66,30.15,30.06,12,4,12,0.00
2013-1-4,79.7,73.5,68.5,72.5,68.3,65.1,91,84,75,30.27,30.12,10,4,10,0.00
2013-1-5,76.8,71.1,68.2,71.3,68.0,65.8,94,90,81,30.27,30.18,12,4,12,0.11
2013-1-6,82.0,75.9,69.4,73.3,70.1,66.1,91,82,73,30.21,30.09,13,6,13,0.00
2013-1-7,74.5,72.1,69.8,70.2,68.6,67.1,92,89,83,30.21,30.09,12,5,12,0.41
2013-1-8,81.3,77.1,73.8,73.3,71.3,69.6,89,82,74,30.24,30.09,17,7,17,0.03
2013-1-9,81.5,78.0,75.9,72.0,70.4,68.5,86,78,71,30.33,30.18,57,9,58,0.00
2013-1-10,80.2,77.1,75.4,68.7,65.8,63.7,77,68,59,30.33,30.18,17,9,17,0.00
2013-1-11,80.1,76.8,75.0,68.7,66.7,64.5,76,71,65,30.27,30.18,17,8,17,0.01
2013-1-12,81.3,76.8,74.5,68.1,66.2,63.3,79,70,62,30.24,30.12,16,6,16,0.03
2013-1-13,81.1,76.5,74.1,67.1,64.5,61.7,74,67,60,30.15,30.09,17,8,17,0.00
2013-1-14,81.3,76.4,73.6,65.3,62.7,60.1,68,63,56,30.24,30.12,15,7,15,0.00
2013-1-15,80.4,76.7,74.7,66.6,64.5,61.1,75,66,60,30.18,30.06,13,6,13,0.00
2013-1-16,82.4,76.9,71.8,68.9,65.0,59.8,72,67,61,30.15,30.03,13,6,13,0.03
2013-1-17,78.3,72.2,62.6,70.5,64.9,53.4,84,78,72,30.12,30.00,25,6,25,0.74
2013-1-18,70.5,63.7,54.3,59.3,51.7,43.8,72,65,56,30.27,30.12,18,9,18,0.00
2013-1-19,72.1,69.7,67.1,67.2,62.7,55.8,94,79,60,30.24,30.12,13,5,13,0.28
2013-1-20,77.0,71.1,66.0,71.0,66.9,64.7,97,87,75,30.18,30.06,12,4,12,0.04
2013-1-21,79.9,73.6,67.8,71.1,67.1,63.3,87,80,73,30.09,30.00,13,5,13,0.05
2013-1-22,74.1,69.0,64.0,64.0,58.4,49.8,92,71,49,30.24,30.00,18,9,18,0.00
2013-1-23,74.1,69.3,63.5,55.1,51.1,47.8,67,53,45,30.33,30.18,15,7,15,0.00
2013-1-24,73.8,67.1,61.9,53.1,50.1,44.6,71,55,42,30.33,30.21,10,6,10,0.00
2013-1-25,77.2,68.6,62.2,58.2,52.0,46.4,64,56,47,30.33,30.18,12,4,12,0.00
2013-1-26,76.8,70.0,62.4,58.0,55.5,50.8,74,60,50,30.27,30.18,10,5,10,0.00
2013-1-27,78.6,73.6,68.2,61.3,58.2,55.2,69,59,46,30.33,30.18,15,6,15,0.00
2013-1-28,80.6,75.8,73.0,64.7,61.9,59.4,70,62,53,30.36,30.24,17,8,17,0.00
2013-1-29,79.7,75.9,74.1,68.2,65.0,16.5,74,69,64,30.30,30.15,15,8,15,0.01
2013-1-30,81.0,75.8,73.0,67.8,64.5,61.9,73,68,63,30.15,30.00,20,9,20,0.03
2013-1-31,75.0,68.4,60.6,68.6,57.3,37.9,86,68,42,30.21,29.94,17,7,17,0.05